Time,TemperatureF,DewpointF,PressureIn,WindDirection,WindDirectionDegrees,WindSpeedMPH,WindSpeedGustMPH,Humidity,HourlyPrecipIn,Conditions,Clouds,dailyrainin,SoftwareType,DateUTC
2013-08-07 15:06:00,83.0,67.7,29.86,ESE,113,1.8,1.8,60,0.00,,,0.00,WUHU216HW,2013-08-07 13:06:00,
2013-08-07 15:07:00,83.0,67.7,29.86,ESE,113,1.8,1.8,60,0.00,,,0.00,WUHU216HW,2013-08-07 13:07:00,
2013-08-07 15:12:00,83.9,67.5,29.86,ESE,113,6.0,6.0,58,0.00,,,0.00,WUHU216HW,2013-08-07 13:12:00,
2013-08-07 15:17:00,84.2,67.4,29.86,NE,45,2.5,6.0,57,0.00,,,0.00,WUHU216HW,2013-08-07 13:17:00,
2013-08-07 15:22:00,84.2,66.9,29.86,ESE,113,4.7,5.4,56,0.00,,,0.00,WUHU216HW,2013-08-07 13:22:00,
2013-08-07 15:27:00,84.1,67.2,29.85,ESE,113,2.0,5.6,57,0.00,,,0.00,WUHU216HW,2013-08-07 13:27:00,
2013-08-07 15:32:00,84.6,67.7,29.85,ENE,68,4.7,5.6,57,0.00,,,0.00,WUHU216HW,2013-08-07 13:32:00,
2013-08-07 15:37:00,84.8,67.9,29.85,ESE,113,3.4,4.7,57,0.00,,,0.00,WUHU216HW,2013-08-07 13:37:00,
2013-08-07 15:42:00,84.8,67.9,29.85,NE,45,3.4,4.5,57,0.00,,,0.00,WUHU216HW,2013-08-07 13:42:00,
2013-08-07 15:47:00,84.6,67.7,29.85,ESE,113,2.7,5.1,57,0.00,,,0.00,WUHU216HW,2013-08-07 13:47:00,
2013-08-07 15:52:00,84.8,67.9,29.84,ENE,68,3.6,5.1,57,0.00,,,0.00,WUHU216HW,2013-08-07 13:52:00,
2013-08-07 15:57:00,85.0,67.0,29.85,East,90,4.0,4.0,55,0.00,,,0.00,WUHU216HW,2013-08-07 13:57:00,
2013-08-07 16:02:00,84.6,66.7,29.85,ESE,113,2.5,6.3,55,0.00,,,0.00,WUHU216HW,2013-08-07 14:02:00,
2013-08-07 16:07:00,84.6,66.7,29.85,SE,135,2.5,6.3,55,0.00,,,0.00,WUHU216HW,2013-08-07 14:07:00,
2013-08-07 16:12:00,84.6,67.1,29.85,East,90,2.7,4.0,56,0.00,,,0.00,WUHU216HW,2013-08-07 14:12:00,
2013-08-07 16:17:00,85.0,67.0,29.84,ENE,68,2.2,5.4,55,0.00,,,0.00,WUHU216HW,2013-08-07 14:17:00,
2013-08-07 16:22:00,85.3,67.9,29.85,ESE,113,3.8,5.4,56,0.00,,,0.00,WUHU216HW,2013-08-07 14:22:00,
2013-08-07 16:27:00,85.5,67.5,29.84,NE,45,2.2,4.3,55,0.00,,,0.00,WUHU216HW,2013-08-07 14:27:00,
2013-08-07 16:32:00,85.5,67.0,29.85,ESE,113,5.6,6.0,54,0.00,,,0.00,WUHU216HW,2013-08-07 14:32:00,
2013-08-07 16:37:00,85.3,67.3,29.85,ENE,68,1.8,6.0,55,0.00,,,0.00,WUHU216HW,2013-08-07 14:37:00,
2013-08-07 16:42:00,85.1,67.7,29.84,NNE,23,2.9,5.6,56,0.00,,,0.00,WUHU216HW,2013-08-07 14:42:00,
2013-08-07 16:47:00,85.0,67.0,29.84,ENE,68,3.4,4.5,55,0.00,,,0.00,WUHU216HW,2013-08-07 14:47:00,
2013-08-07 16:52:00,84.6,67.1,29.84,East,90,1.8,4.7,56,0.00,,,0.00,WUHU216HW,2013-08-07 14:52:00,
2013-08-07 16:57:00,84.6,67.1,29.84,ENE,68,1.3,4.7,56,0.00,,,0.00,WUHU216HW,2013-08-07 14:57:00,
2013-08-07 17:02:00,84.8,67.3,29.84,East,90,1.8,4.7,56,0.00,,,0.00,WUHU216HW,2013-08-07 15:02:00,
2013-08-07 17:07:00,85.1,67.7,29.84,ENE,68,3.4,4.7,56,0.00,,,0.00,WUHU216HW,2013-08-07 15:07:00,
2013-08-07 17:12:00,85.3,67.3,29.84,NE,45,3.8,4.0,55,0.00,,,0.00,WUHU216HW,2013-08-07 15:12:00,
2013-08-07 17:17:00,85.5,67.5,29.83,NE,45,1.8,4.0,55,0.00,,,0.00,WUHU216HW,2013-08-07 15:17:00,
2013-08-07 17:22:00,85.3,67.9,29.84,NE,45,2.9,4.7,56,0.00,,,0.00,WUHU216HW,2013-08-07 15:22:00,
2013-08-07 17:27:00,85.3,67.9,29.84,ENE,68,1.3,4.7,56,0.00,,,0.00,WUHU216HW,2013-08-07 15:27:00,
2013-08-07 17:32:00,85.1,67.7,29.83,East,90,1.8,3.8,56,0.00,,,0.00,WUHU216HW,2013-08-07 15:32:00,
2013-08-07 17:37:00,85.1,68.2,29.83,ENE,68,1.8,3.8,57,0.00,,,0.00,WUHU216HW,2013-08-07 15:37:00,
2013-08-07 17:42:00,85.3,68.3,29.83,NE,45,2.9,4.5,57,0.00,,,0.00,WUHU216HW,2013-08-07 15:42:00,
2013-08-07 17:47:00,85.3,68.3,29.83,ENE,68,2.5,4.5,57,0.00,,,0.00,WUHU216HW,2013-08-07 15:47:00,
2013-08-07 17:52:00,85.5,68.5,29.83,ENE,68,1.3,3.8,57,0.00,,,0.00,WUHU216HW,2013-08-07 15:52:00,
2013-08-07 17:57:00,85.5,69.0,29.83,NE,45,2.9,3.4,58,0.00,,,0.00,WUHU216HW,2013-08-07 15:57:00,
2013-08-07 18:02:00,85.7,69.2,29.82,NE,45,2.0,3.1,58,0.00,,,0.00,WUHU216HW,2013-08-07 16:02:00,
2013-08-07 18:07:00,85.7,68.7,29.82,East,90,1.3,2.9,57,0.00,,,0.00,WUHU216HW,2013-08-07 16:07:00,
2013-08-07 18:12:00,85.9,68.9,29.82,NNE,23,2.9,2.9,57,0.00,,,0.00,WUHU216HW,2013-08-07 16:12:00,
2013-08-07 18:17:00,85.9,68.9,29.82,ENE,68,2.0,2.9,57,0.00,,,0.00,WUHU216HW,2013-08-07 16:17:00,
2013-08-07 18:22:00,85.7,69.2,29.82,NE,45,1.8,3.8,58,0.00,,,0.00,WUHU216HW,2013-08-07 16:22:00,
2013-08-07 18:27:00,85.7,69.2,29.82,ESE,113,2.5,4.5,58,0.00,,,0.00,WUHU216HW,2013-08-07 16:27:00,
2013-08-07 18:32:00,85.5,69.6,29.81,NNE,23,3.1,4.5,59,0.00,,,0.00,WUHU216HW,2013-08-07 16:32:00,
2013-08-07 18:37:00,85.5,69.6,29.81,ESE,113,2.5,4.0,59,0.00,,,0.00,WUHU216HW,2013-08-07 16:37:00,
2013-08-07 18:42:00,85.5,70.1,29.81,East,90,1.8,3.6,60,0.00,,,0.00,WUHU216HW,2013-08-07 16:42:00,
2013-08-07 18:47:00,85.5,70.1,29.81,ESE,113,1.1,3.6,60,0.00,,,0.00,WUHU216HW,2013-08-07 16:47:00,
2013-08-07 18:52:00,85.7,70.2,29.81,ENE,68,2.0,2.0,60,0.00,,,0.00,WUHU216HW,2013-08-07 16:52:00,
2013-08-07 18:57:00,85.3,69.4,29.81,ENE,68,2.0,4.0,59,0.00,,,0.00,WUHU216HW,2013-08-07 16:57:00,
2013-08-07 19:02:00,85.1,69.8,29.81,ENE,68,1.1,4.7,60,0.00,,,0.00,WUHU216HW,2013-08-07 17:02:00,
2013-08-07 19:07:00,85.0,69.6,29.81,ESE,113,1.8,4.7,60,0.00,,,0.00,WUHU216HW,2013-08-07 17:07:00,
2013-08-07 19:12:00,84.6,69.8,29.81,East,90,2.5,3.4,61,0.00,,,0.00,WUHU216HW,2013-08-07 17:12:00,
2013-08-07 19:17:00,84.4,69.6,29.81,NNE,23,2.2,3.4,61,0.00,,,0.00,WUHU216HW,2013-08-07 17:17:00,
2013-08-07 19:22:00,84.2,69.4,29.81,NE,45,0.2,2.5,61,0.00,,,0.00,WUHU216HW,2013-08-07 17:22:00,
2013-08-07 19:27:00,84.1,69.7,29.81,ENE,68,0.0,2.2,62,0.00,,,0.00,WUHU216HW,2013-08-07 17:27:00,
2013-08-07 19:32:00,83.7,70.2,29.81,ENE,68,0.0,0.4,64,0.00,,,0.00,WUHU216HW,2013-08-07 17:32:00,
2013-08-07 19:37:00,83.2,70.1,29.81,SE,135,0.2,1.3,65,0.00,,,0.00,WUHU216HW,2013-08-07 17:37:00,
2013-08-07 19:42:00,83.0,69.9,29.81,SE,135,0.0,1.3,65,0.00,,,0.00,WUHU216HW,2013-08-07 17:42:00,
2013-08-07 19:47:00,82.3,69.2,29.81,SE,135,0.0,0.4,65,0.00,,,0.00,WUHU216HW,2013-08-07 17:47:00,
2013-08-07 19:52:00,81.7,69.2,29.81,SSE,158,0.0,0.9,66,0.00,,,0.00,WUHU216HW,2013-08-07 17:52:00,
2013-08-07 19:57:00,81.4,68.9,29.81,SSE,158,0.0,0.9,66,0.00,,,0.00,WUHU216HW,2013-08-07 17:57:00,
2013-08-07 20:02:00,80.8,68.9,29.81,SSE,158,0.2,0.4,67,0.00,,,0.00,WUHU216HW,2013-08-07 18:02:00,
2013-08-07 20:07:00,80.5,68.9,29.81,SSE,158,0.0,0.4,68,0.00,,,0.00,WUHU216HW,2013-08-07 18:07:00,
2013-08-07 20:12:00,80.1,68.6,29.80,SSE,158,0.0,0.4,68,0.00,,,0.00,WUHU216HW,2013-08-07 18:12:00,
2013-08-07 20:17:00,79.6,68.5,29.80,SSE,158,0.2,0.2,69,0.00,,,0.00,WUHU216HW,2013-08-07 18:17:00,
2013-08-07 20:22:00,79.6,68.5,29.80,SE,135,0.4,1.6,69,0.00,,,0.00,WUHU216HW,2013-08-07 18:22:00,
2013-08-07 20:27:00,79.0,68.4,29.80,SE,135,0.0,1.6,70,0.00,,,0.00,WUHU216HW,2013-08-07 18:27:00,
2013-08-07 20:32:00,78.8,68.2,29.80,SE,135,0.0,0.4,70,0.00,,,0.00,WUHU216HW,2013-08-07 18:32:00,
2013-08-07 20:37:00,78.5,68.3,29.80,SE,135,0.0,0.0,71,0.00,,,0.00,WUHU216HW,2013-08-07 18:37:00,
2013-08-07 20:42:00,78.1,68.0,29.80,SE,135,0.0,0.0,71,0.00,,,0.00,WUHU216HW,2013-08-07 18:42:00,
2013-08-07 20:47:00,77.9,67.8,29.80,SE,135,0.0,0.0,71,0.00,,,0.00,WUHU216HW,2013-08-07 18:47:00,
2013-08-07 20:52:00,77.8,67.6,29.80,SE,135,0.0,0.2,71,0.00,,,0.00,WUHU216HW,2013-08-07 18:52:00,
2013-08-07 20:57:00,77.4,67.7,29.80,SE,135,0.0,0.2,72,0.00,,,0.00,WUHU216HW,2013-08-07 18:57:00,
2013-08-07 21:02:00,77.0,67.3,29.80,SE,135,0.0,0.0,72,0.00,,,0.00,WUHU216HW,2013-08-07 19:02:00,
2013-08-07 21:07:00,76.7,67.0,29.80,SE,135,0.2,0.4,72,0.00,,,0.00,WUHU216HW,2013-08-07 19:07:00,
2013-08-07 21:12:00,76.5,67.2,29.80,SSE,158,0.7,0.7,73,0.00,,,0.00,WUHU216HW,2013-08-07 19:12:00,
2013-08-07 21:17:00,76.1,66.9,29.81,SSE,158,0.4,0.9,73,0.00,,,0.00,WUHU216HW,2013-08-07 19:17:00,
2013-08-07 21:22:00,76.0,66.7,29.80,SE,135,1.3,1.8,73,0.00,,,0.00,WUHU216HW,2013-08-07 19:22:00,
2013-08-07 21:27:00,75.8,66.5,29.80,South,180,1.1,1.8,73,0.00,,,0.00,WUHU216HW,2013-08-07 19:27:00,
2013-08-07 21:32:00,75.6,66.3,29.81,SSW,203,0.7,1.6,73,0.00,,,0.00,WUHU216HW,2013-08-07 19:32:00,
2013-08-07 21:37:00,75.4,66.6,29.81,SSW,203,0.7,1.6,74,0.00,,,0.00,WUHU216HW,2013-08-07 19:37:00,
2013-08-07 21:42:00,75.2,66.4,29.81,SSW,203,0.4,1.1,74,0.00,,,0.00,WUHU216HW,2013-08-07 19:42:00,
2013-08-07 21:47:00,75.2,66.4,29.81,SSE,158,0.4,1.1,74,0.00,,,0.00,WUHU216HW,2013-08-07 19:47:00,
2013-08-07 21:52:00,75.2,66.4,29.81,SSE,158,0.0,1.1,74,0.00,,,0.00,WUHU216HW,2013-08-07 19:52:00,
2013-08-07 21:57:00,75.2,66.4,29.81,South,180,0.0,0.7,74,0.00,,,0.00,WUHU216HW,2013-08-07 19:57:00,
2013-08-07 22:02:00,74.9,66.4,29.81,South,180,0.4,0.7,75,0.00,,,0.00,WUHU216HW,2013-08-07 20:02:00,
2013-08-07 22:07:00,74.7,66.2,29.82,SW,225,0.7,0.9,75,0.00,,,0.00,WUHU216HW,2013-08-07 20:07:00,
2013-08-07 22:12:00,74.5,66.1,29.82,SW,225,1.8,1.8,75,0.00,,,0.00,WUHU216HW,2013-08-07 20:12:00,
2013-08-07 22:17:00,74.5,66.1,29.82,SE,135,0.9,1.8,75,0.00,,,0.00,WUHU216HW,2013-08-07 20:17:00,
2013-08-07 22:22:00,74.3,66.3,29.81,SE,135,0.9,1.8,76,0.00,,,0.00,WUHU216HW,2013-08-07 20:22:00,
2013-08-07 22:27:00,74.3,66.3,29.81,SE,135,1.1,2.0,76,0.00,,,0.00,WUHU216HW,2013-08-07 20:27:00,
2013-08-07 22:32:00,74.2,66.2,29.81,ESE,113,0.9,2.0,76,0.00,,,0.00,WUHU216HW,2013-08-07 20:32:00,
2013-08-07 22:37:00,74.2,65.8,29.82,South,180,4.0,6.5,75,0.00,,,0.00,WUHU216HW,2013-08-07 20:37:00,
2013-08-07 22:42:00,74.9,66.1,29.82,SSE,158,1.8,6.5,74,0.00,,,0.00,WUHU216HW,2013-08-07 20:42:00,
2013-08-07 22:47:00,75.6,66.3,29.81,SSW,203,5.6,6.5,73,0.00,,,0.00,WUHU216HW,2013-08-07 20:47:00,
2013-08-07 22:52:00,76.0,66.3,29.81,SSW,203,3.4,5.6,72,0.00,,,0.00,WUHU216HW,2013-08-07 20:52:00,
2013-08-07 22:57:00,76.1,66.5,29.81,SW,225,2.0,5.6,72,0.00,,,0.00,WUHU216HW,2013-08-07 20:57:00,
2013-08-07 23:02:00,76.1,66.1,29.81,SSE,158,1.1,5.1,71,0.00,,,0.00,WUHU216HW,2013-08-07 21:02:00,
2013-08-07 23:07:00,76.3,65.0,29.81,SSW,203,5.4,9.6,68,0.00,,,0.00,WUHU216HW,2013-08-07 21:07:00,
2013-08-07 23:12:00,76.3,64.1,29.81,SW,225,4.0,9.6,66,0.00,,,0.00,WUHU216HW,2013-08-07 21:12:00,
2013-08-07 23:17:00,76.5,64.3,29.81,SSW,203,1.6,6.7,66,0.00,,,0.00,WUHU216HW,2013-08-07 21:17:00,
2013-08-07 23:22:00,76.3,63.6,29.81,ESE,113,3.4,4.0,65,0.00,,,0.00,WUHU216HW,2013-08-07 21:22:00,
2013-08-07 23:27:00,76.3,63.6,29.80,SE,135,4.5,4.5,65,0.00,,,0.00,WUHU216HW,2013-08-07 21:27:00,
2013-08-07 23:32:00,76.1,63.9,29.80,NE,45,0.0,4.5,66,0.00,,,0.00,WUHU216HW,2013-08-07 21:32:00,
2013-08-07 23:37:00,76.1,63.9,29.79,ENE,68,3.6,4.5,66,0.00,,,0.00,WUHU216HW,2013-08-07 21:37:00,
2013-08-07 23:42:00,76.0,63.7,29.79,SSE,158,0.7,4.7,66,0.00,,,0.00,WUHU216HW,2013-08-07 21:42:00,
2013-08-07 23:47:00,76.0,63.7,29.78,East,90,0.7,4.7,66,0.00,,,0.00,WUHU216HW,2013-08-07 21:47:00,
2013-08-07 23:52:00,75.8,63.6,29.77,ENE,68,2.7,2.9,66,0.00,,,0.00,WUHU216HW,2013-08-07 21:52:00,
2013-08-07 23:57:00,75.6,63.5,29.77,West,270,1.6,4.0,66,0.00,,,0.00,WUHU216HW,2013-08-07 21:57:00,